timestamp,surface_pressure_avg,surface_temp_avg,battery_voltage,lat,long
2019-10-19 00:00:00+00:00,281.6714,10.0,12.81,47.84626,-54.09684
2019-10-19 00:10:00+00:00,285.283,10.0,12.73,47.84626,-54.09684
2019-10-19 00:20:00+00:00,286.4197,10.0,12.81,47.84626,-54.09684
2019-10-19 00:30:00+00:00,293.1431,10.0,12.81,47.84626,-54.09684
2019-10-19 00:40:00+00:00,300.473,10.0,12.81,47.84626,-54.09684
2019-10-19 00:50:00+00:00,308.7164,10.0,12.81,47.84626,-54.09684
2019-10-19 01:00:00+00:00,316.5964,10.0,12.81,47.84626,-54.09684
2019-10-19 01:10:00+00:00,314.633,10.0,12.73,47.84626,-54.09684
2019-10-19 01:20:00+00:00,320.4597,10.0,12.81,47.84626,-54.09684
2019-10-19 01:30:00+00:00,333.2097,10.0,12.81,47.84626,-54.09684
2019-10-19 01:40:00+00:00,333.4546,10.0,12.81,47.84626,-54.09684
2019-10-19 01:50:00+00:00,322.9529,10.0,12.81,47.84626,-54.09684
2019-10-19 02:00:00+00:00,328.3331,10.0,12.73,47.84626,-54.09684
2019-10-19 02:10:00+00:00,340.3729,10.0,12.73,47.84626,-54.09684
2019-10-19 02:20:00+00:00,332.3513,10.0,12.81,47.84626,-54.09684
2019-10-19 02:30:00+00:00,328.4147,10.0,12.81,47.84626,-54.09684
2019-10-19 02:40:00+00:00,337.053,10.0,12.81,47.84626,-54.09684
2019-10-19 02:50:00+00:00,338.2364,10.0,12.81,47.84626,-54.09684
2019-10-19 03:00:00+00:00,327.8796,10.0,12.73,47.84626,-54.09684
2019-10-19 03:10:00+00:00,328.3313,10.0,12.73,47.84626,-54.09684
2019-10-19 03:20:00+00:00,331.7629,10.0,12.81,47.84626,-54.09684
2019-10-19 03:30:00+00:00,316.8496,10.0,12.81,47.84626,-54.09684
2019-10-19 03:40:00+00:00,311.9663,10.0,12.81,47.84626,-54.09684
2019-10-19 03:50:00+00:00,323.4296,10.0,12.81,47.84626,-54.09684
2019-10-19 04:00:00+00:00,317.683,10.0,12.73,47.84626,-54.09684
2019-10-19 04:10:00+00:00,302.058,10.0,12.73,47.84626,-54.09684
2019-10-19 04:20:00+00:00,309.9481,10.0,12.81,47.84626,-54.09684
2019-10-19 04:30:00+00:00,315.8347,10.0,12.81,47.84626,-54.09684
2019-10-19 04:40:00+00:00,300.338,10.0,12.81,47.84626,-54.09684
2019-10-19 04:50:00+00:00,293.1547,10.0,12.81,47.84626,-54.09684
2019-10-19 05:00:00+00:00,296.4647,10.0,12.73,47.84626,-54.09684
2019-10-19 05:10:00+00:00,284.8531,10.0,12.73,47.84626,-54.09684
2019-10-19 05:20:00+00:00,271.4064,10.0,12.81,47.84626,-54.09684
2019-10-19 05:30:00+00:00,273.9431,10.0,12.81,47.84626,-54.09684
2019-10-19 05:40:00+00:00,273.4197,10.0,12.81,47.84626,-54.09684
2019-10-19 05:50:00+00:00,264.9581,10.0,12.81,47.84626,-54.09684
2019-10-19 06:00:00+00:00,260.7681,10.0,12.73,47.84626,-54.09684
2019-10-19 06:10:00+00:00,257.2398,10.0,12.65,47.84626,-54.09684
2019-10-19 06:20:00+00:00,246.7998,10.0,12.73,47.84626,-54.09684
2019-10-19 06:30:00+00:00,239.1764,10.0,12.81,47.84626,-54.09684
2019-10-19 06:40:00+00:00,234.8597,10.0,12.81,47.84626,-54.09684
2019-10-19 06:50:00+00:00,227.608,10.0,12.81,47.84626,-54.09684
2019-10-19 07:00:00+00:00,216.5848,10.1,12.73,47.84626,-54.09684
2019-10-19 07:10:00+00:00,213.6698,10.2,12.65,47.84626,-54.09684
2019-10-19 07:20:00+00:00,215.1581,10.2,12.73,47.84626,-54.09684
2019-10-19 07:30:00+00:00,209.5648,10.2,12.81,47.84626,-54.09684
2019-10-19 07:40:00+00:00,200.4998,10.2,12.81,47.84626,-54.09684
2019-10-19 07:50:00+00:00,203.0897,10.2,12.81,47.84626,-54.09684
2019-10-19 08:00:00+00:00,208.4815,10.2,12.73,47.84626,-54.09684
2019-10-19 08:10:00+00:00,204.9365,10.2,12.65,47.84626,-54.09684
2019-10-19 08:20:00+00:00,202.0765,10.2,12.73,47.84626,-54.09684
2019-10-19 08:30:00+00:00,207.0482,10.2,12.81,47.84626,-54.09684
2019-10-19 08:40:00+00:00,210.6298,10.2,12.81,47.84626,-54.09684
2019-10-19 08:50:00+00:00,214.7898,10.2,12.81,47.84626,-54.09684
2019-10-19 09:00:00+00:00,220.8098,10.2,12.73,47.84626,-54.09684
2019-10-19 09:10:00+00:00,225.9447,10.2,12.65,47.84626,-54.09684
2019-10-19 09:20:00+00:00,229.1497,10.2,12.73,47.84626,-54.09684
2019-10-19 09:30:00+00:00,236.0714,10.2,12.73,47.84626,-54.09684
2019-10-19 09:40:00+00:00,240.1548,10.2,12.81,47.84626,-54.09684
2019-10-19 09:50:00+00:00,242.4731,10.2,12.81,47.84626,-54.09684
2019-10-19 10:00:00+00:00,245.4214,10.2,12.73,47.84626,-54.09684
2019-10-19 10:10:00+00:00,247.9331,10.2,12.65,47.84626,-54.09684
2019-10-19 10:20:00+00:00,250.5548,10.17,12.73,47.84626,-54.09684
2019-10-19 10:30:00+00:00,249.9265,10.15,12.73,47.84626,-54.09684
2019-10-19 10:40:00+00:00,252.5714,10.1,12.81,47.84626,-54.09684
2019-10-19 10:50:00+00:00,257.118,10.16,12.81,47.84626,-54.09684
2019-10-19 11:00:00+00:00,262.0714,10.16,12.73,47.84626,-54.09684
2019-10-19 11:10:00+00:00,264.0964,10.12,12.65,47.84626,-54.09684
2019-10-19 11:20:00+00:00,268.3731,10.1,12.81,47.84626,-54.09684
2019-10-19 11:30:00+00:00,276.5547,10.1,12.81,47.84626,-54.09684
2019-10-19 11:40:00+00:00,281.2097,10.1,12.81,47.84626,-54.09684
2019-10-19 11:50:00+00:00,277.6264,10.05,12.89,47.84626,-54.09684
2019-10-19 12:00:00+00:00,280.2731,10.03,12.81,47.84626,-54.09684
2019-10-19 12:10:00+00:00,294.6697,10.03,12.73,47.84626,-54.09684
2019-10-19 12:20:00+00:00,309.063,10.02,12.81,47.84626,-54.09684
2019-10-19 12:30:00+00:00,309.7113,10.04,12.89,47.84626,-54.09684
2019-10-19 12:40:00+00:00,313.5264,10.05,12.97,47.84626,-54.09684
2019-10-19 12:50:00+00:00,326.903,10.05,12.97,47.84626,-54.09684
2019-10-19 13:00:00+00:00,338.1514,10.05,12.97,47.84626,-54.09684
2019-10-19 13:10:00+00:00,337.4779,10.02,12.97,47.84626,-54.09684
2019-10-19 13:20:00+00:00,341.3729,10.0,13.13,47.84626,-54.09684
2019-10-19 13:30:00+00:00,353.4696,10.0,13.21,47.84626,-54.09684
2019-10-19 13:40:00+00:00,358.3447,10.0,13.29,47.84626,-54.09684
2019-10-19 13:50:00+00:00,355.4029,10.04,13.29,47.84626,-54.09684
2019-10-19 14:00:00+00:00,361.4913,10.0,13.21,47.84626,-54.09684
2019-10-19 14:10:00+00:00,372.8329,10.0,13.21,47.84626,-54.09684
2019-10-19 14:20:00+00:00,372.0845,10.0,13.37,47.84626,-54.09684
2019-10-19 14:30:00+00:00,368.7996,10.0,13.37,47.84626,-54.09684
2019-10-19 14:40:00+00:00,368.6396,10.0,13.37,47.84626,-54.09684
2019-10-19 14:50:00+00:00,367.618,10.02,13.44,47.84626,-54.09684
2019-10-19 15:00:00+00:00,365.4713,10.05,13.37,47.84626,-54.09684
2019-10-19 15:10:00+00:00,363.0213,10.05,13.29,47.84626,-54.09684
2019-10-19 15:20:00+00:00,359.6979,10.06,13.44,47.84626,-54.09684
2019-10-19 15:30:00+00:00,356.8513,10.05,13.53,47.84626,-54.09684
2019-10-19 15:40:00+00:00,364.6046,10.04,13.44,47.84626,-54.09684
2019-10-19 15:50:00+00:00,361.5829,10.06,13.44,47.84626,-54.09684
2019-10-19 16:00:00+00:00,351.8195,10.1,13.29,47.84626,-54.09684
2019-10-19 16:10:00+00:00,356.673,10.07,13.29,47.84626,-54.09684
2019-10-19 16:20:00+00:00,358.6013,10.07,13.29,47.84626,-54.09684
2019-10-19 16:30:00+00:00,349.463,10.1,13.29,47.84626,-54.09684
2019-10-19 16:40:00+00:00,341.1163,10.2,13.37,47.84626,-54.09684
2019-10-19 16:50:00+00:00,342.7196,10.2,13.37,47.84626,-54.09684
2019-10-19 17:00:00+00:00,340.3529,10.2,13.29,47.84626,-54.09684
2019-10-19 17:10:00+00:00,332.858,10.21,13.21,47.84626,-54.09684
2019-10-19 17:20:00+00:00,326.7796,10.2,13.29,47.84626,-54.09684
2019-10-19 17:30:00+00:00,326.183,10.2,13.37,47.84626,-54.09684
2019-10-19 17:40:00+00:00,321.803,10.2,13.37,47.84626,-54.09684
2019-10-19 17:50:00+00:00,314.5663,10.2,13.44,47.84626,-54.09684
2019-10-19 18:00:00+00:00,304.5564,10.2,13.29,47.84626,-54.09684
2019-10-19 18:10:00+00:00,298.1214,10.2,13.29,47.84626,-54.09684
2019-10-19 18:20:00+00:00,292.873,10.2,13.68,47.84626,-54.09684
2019-10-19 18:30:00+00:00,286.3647,10.2,13.68,47.84626,-54.09684
2019-10-19 18:40:00+00:00,276.8047,10.2,13.68,47.84626,-54.09684
2019-10-19 18:50:00+00:00,265.6048,10.21,13.68,47.84626,-54.09684
2019-10-19 19:00:00+00:00,263.0431,10.25,13.53,47.84626,-54.09684
2019-10-19 19:10:00+00:00,263.0581,10.26,13.44,47.84626,-54.09684
2019-10-19 19:20:00+00:00,250.6781,10.28,13.53,47.84626,-54.09684
2019-10-19 19:30:00+00:00,236.7615,10.29,13.44,47.84626,-54.09684
2019-10-19 19:40:00+00:00,238.3381,10.29,13.53,47.84626,-54.09684
2019-10-19 19:50:00+00:00,238.7814,10.29,13.44,47.84626,-54.09684
2019-10-19 20:00:00+00:00,228.2231,10.28,13.37,47.84626,-54.09684
2019-10-19 20:10:00+00:00,225.3048,10.28,13.21,47.84626,-54.09684
2019-10-19 20:20:00+00:00,229.0281,10.27,13.29,47.84626,-54.09684
2019-10-19 20:30:00+00:00,227.4714,10.25,13.21,47.84626,-54.09684
2019-10-19 20:40:00+00:00,226.0797,10.22,13.21,47.84626,-54.09684
2019-10-19 20:50:00+00:00,230.0031,10.2,13.21,47.84626,-54.09684
2019-10-19 21:00:00+00:00,229.3747,10.2,13.13,47.84626,-54.09684
2019-10-19 21:10:00+00:00,227.1998,10.2,13.05,47.84626,-54.09684
2019-10-19 21:20:00+00:00,237.7647,10.2,13.13,47.84626,-54.09684
2019-10-19 21:30:00+00:00,245.3798,10.2,13.13,47.84626,-54.09684
2019-10-19 21:40:00+00:00,241.9298,10.2,13.13,47.84626,-54.09684
2019-10-19 21:50:00+00:00,241.0848,10.2,13.13,47.84626,-54.09684
2019-10-19 22:00:00+00:00,249.7381,10.2,13.05,47.84626,-54.09684
2019-10-19 22:10:00+00:00,252.518,10.18,12.97,47.84626,-54.09684
2019-10-19 22:20:00+00:00,252.4914,10.19,13.05,47.84626,-54.09684
2019-10-19 22:30:00+00:00,255.0747,10.2,13.05,47.84626,-54.09684
2019-10-19 22:40:00+00:00,260.0964,10.19,13.05,47.84626,-54.09684
2019-10-19 22:50:00+00:00,258.7814,10.15,13.05,47.84626,-54.09684
2019-10-19 23:00:00+00:00,257.3815,10.19,13.05,47.84626,-54.09684
2019-10-19 23:10:00+00:00,260.7881,10.2,12.97,47.84626,-54.09684
2019-10-19 23:20:00+00:00,265.2131,10.19,13.05,47.84626,-54.09684
2019-10-19 23:30:00+00:00,264.2447,10.18,13.05,47.84626,-54.09684
2019-10-19 23:40:00+00:00,263.2681,10.17,13.05,47.84626,-54.09684
2019-10-19 23:50:00+00:00,269.7081,10.16,13.05,47.84626,-54.09684
